Terminal Aerodrome Forecast
Issued by NWS Shreveport, LA

Home | Current Version | Previous Version | Text Only | Print | Product List | Glossary On
Versions: 1 2 3 4 5 6 7 8 9 10 11 12 13 14 15 16
195
FTUS44 KSHV 250540
TAFMLU
TAF
KMLU 250540Z 2506/2606 33014G20KT P6SM SKC
     FM251200 35009KT P6SM SKC
     FM260000 VRB03KT P6SM SKC=

USA.gov is the U.S. government's official web portal to all federal, state and local government web resources and services.